Regional Weather Roundup
Issued by NWS Goodland, KS

Home | Current Version | Previous Version | Text Only | Print | Product List | Glossary Off
Versions: 1 2 3 4 5 6 7 8 9 10 11 12 13 14 15 16 17 18 19 20 21 22 23 24 25 26 27 28 29 30 31 32 33 34 35 36 37 38 39 40 41 42 43 44 45 46 47 48 49 50

000
ASUS43 KGLD 240508
RWRGLD

GOODLAND FORECAST AREA HOURLY WEATHER ROUNDUP
NATIONAL WEATHER SERVICE GOODLAND KS
1100 PM MDT SUN APR 23 2017

...OFFICIAL OBSERVATIONS...

CITY           SKY/WX    TMP DP  RH WIND       PRES   REMARKS
GOODLAND KS    CLOUDY    54  38  54 S22       29.69F
HILL CITY KS   CLOUDY    55  38  52 S9        29.79F
IMPERIAL NEB   CLOUDY    54  38  54 SE15      29.68F
MCCOOK NEB     CLOUDY    56  33  42 S9        29.72F
AKRON CO       CLOUDY    50  39  66 SE10      29.63F
BURLINGTON CO  NOT AVBL
LIMON CO       CLOUDY    46  40  79 SE8       29.70F
$$

...UNOFFICIAL OBSERVATIONS...

CITY           SKY/WX    TMP DP  RH WIND       PRES   REMARKS
LENORA KS        N/A     54  32  43 MISG        N/A
NORTON KS      CLEAR     54  32  43 SE14G22   29.76F
SHARON SPRINGS   N/A     55  39  55 S24G33      N/A
TRENTON NEB      N/A     54  32  43 SW12        N/A
KIT CARSON CO    N/A     56  39  53 MISG        N/A
$$




USA.gov is the U.S. government's official web portal to all federal, state and local government web resources and services.